Location: Bay Ridge
(40.6340°N, 74.0146°W)
Time: 10:40:54
(UTC+00:00)

Gbstr 26 Del rocket - Pass Details

Date: 15 November 2019
Orbit: 493 x 1264 km, 51.8° (Epoch: 11 December)

Event Time Altitude Azimuth Distance (km) Brightness Sun altitude
Exits shadow 11:07:30 - 288° (WNW) 1,807 4.7 -7.0°
Reaches altitude 10° 11:07:47 10° 290° (WNW) 1,715 4.6 -7.0°
Maximum altitude 11:10:44 21° 342° (NNW) 1,147 4.1 -6.4°
Drops below altitude 10° 11:13:41 10° 34° (NE) 1,698 5.5 -5.9°
Sets 11:16:17 0° 51° (NE) 2,619 6.8 -5.4°
